Flag for Germany Weather past 2 weeks in Erfurt, Thuringia, Germany

Now
66 °F

Passing clouds.


Feels Like: 66 °F
Forecast: 57 / 71 °F
Wind: 6 mph from South

Location: Erfurt-Bindersleben

Current Time: Aug 28, 2014 at 11:58:08 AM

Latest Report: Aug 28, 2014 at 11:20 AM


Visibility: N/A

Pressure: 30.09 "Hg

Humidity: 52%

Dew point: 48 °F

Location of ErfurtLocation

Historic Weather in Erfurt — Graph

°F

Erfurt temperature yesterday

Maximum temperature yesterday: 66 °F (at 3:50 PM)
Minimum temperature yesterday: 50 °F (at 5:50 AM)
Average temperature yesterday: 57 °F

Past Weeks' High & Low Weather Summary

 TemperatureHumidityPressure
High70 °F (Aug 13, 12:50 PM)100% (Aug 13, 11:20 PM)30.09 "Hg (Aug 13, 11:20 PM)
Low43 °F (Aug 21, 5:20 AM)37% (Aug 22, 2:50 PM)29.65 "Hg (Aug 13, 3:50 PM)
Average56 °F76%29.92 "Hg
* Reported Aug 13 10:20 AM — Aug 28 10:50 AM, Erfurt, Weather by CustomWeather, © 2014

Note: Actual official high and low records may vary slightly from our data, if they occured in-between our weather recording intervals... More about our weather records

Advertising

Erfurt weather history for previous 24 hours

 ConditionsComfort  
Time TempWeatherWind HumidityBarometerVisibility
10:50 AM
Aug 28
64 °FPassing clouds.2 mph60%30.09 "HgN/A
10:20 AM61 °FPassing clouds.2 mph68%30.09 "HgN/A
9:50 AM59 °FPassing clouds.3 mph68%30.09 "HgN/A
9:20 AM55 °FPassing clouds.6 mph77%30.09 "HgN/A
8:50 AM54 °FSunny.8 mph82%30.09 "Hg10 mi
8:20 AM52 °FSunny.7 mph88%30.09 "Hg10 mi
7:50 AM48 °FPassing clouds.10 mph94%30.09 "HgN/A
7:20 AM46 °FPassing clouds.12 mph93%30.07 "HgN/A
6:50 AM46 °FPassing clouds.10 mph93%30.07 "HgN/A
6:20 AM45 °FClear.12 mph93%30.07 "Hg10 mi
5:50 AM46 °FPassing clouds.10 mph87%30.07 "HgN/A
5:20 AM46 °FPassing clouds.10 mph87%30.07 "HgN/A
4:50 AM46 °FClear.10 mph93%30.07 "Hg10 mi
4:20 AM46 °FClear.10 mph93%30.07 "Hg10 mi
3:50 AM46 °FClear.9 mph93%30.07 "Hg10 mi
3:20 AM46 °FClear.9 mph93%30.07 "Hg10 mi
2:50 AM46 °FClear.9 mph93%30.07 "Hg10 mi
2:20 AM46 °FClear.9 mph93%30.07 "Hg10 mi
1:50 AM46 °FClear.10 mph93%30.09 "Hg10 mi
1:20 AM48 °FClear.9 mph94%30.07 "Hg10 mi
12:50 AM48 °FClear.8 mph87%30.07 "Hg10 mi
12:20 AM50 °FClear.8 mph88%30.07 "Hg10 mi
11:50 PM
Aug 27
52 °FClear.8 mph82%30.07 "Hg10 mi
11:20 PM52 °FClear.7 mph88%30.07 "Hg10 mi
10:50 PM54 °FClear.8 mph82%30.07 "Hg10 mi
10:20 PM54 °FClear.7 mph72%30.07 "Hg10 mi
9:50 PM57 °FClear.7 mph67%30.07 "Hg10 mi
9:20 PM59 °FClear.6 mph59%30.07 "Hg10 mi
8:50 PM61 °FSunny.6 mph55%30.07 "Hg10 mi
8:20 PM61 °FSunny.5 mph55%30.04 "Hg10 mi
7:50 PM63 °FSunny.5 mph52%30.04 "Hg10 mi
7:20 PM64 °FSunny.3 mph49%30.04 "Hg10 mi
6:20 PM64 °FSunny.3 mph43%30.04 "Hg10 mi
5:50 PM66 °FSunny.3 mph43%30.04 "Hg10 mi
4:20 PM66 °FScattered clouds.3 mph43%30.04 "HgN/A
3:50 PM66 °FScattered clouds.3 mph40%30.04 "HgN/A
3:20 PM64 °FScattered clouds.6 mph49%30.04 "HgN/A
2:50 PM64 °FScattered clouds.5 mph49%30.04 "HgN/A
2:20 PM64 °FScattered clouds.3 mph49%30.04 "HgN/A
1:50 PM63 °FScattered clouds.2 mph56%30.01 "HgN/A
1:20 PM61 °FScattered clouds.5 mph59%30.04 "HgN/A
12:20 PM61 °FScattered clouds.3 mph55%30.01 "HgN/A
11:50 AM61 °FScattered clouds.5 mph63%30.01 "HgN/A
11:20 AM59 °FPassing clouds.3 mph68%30.01 "HgN/A
Weather by CustomWeather, © 2014

See weather overviewHow to use our weather pages